Terminal Aerodrome Forecast
Issued by NWS Sterling, VA

Current Version | Previous Version | Graphics & Text | Print | Product List | Glossary On
Versions: 1 2 3 4 5 6 7 8 9 10 11 12 13 14 15 16 17 18 19 20 21
000
FTUS41 KLWX 301700
TAFDCA
TAF
KDCA 301740Z 3018/3118 18007KT P6SM SCT050
     FM302100 22006KT P6SM SCT050
     FM310100 VRB03KT P6SM BKN070
     FM311300 24005KT P6SM SCT050=

USA.gov is the U.S. government's official web portal to all federal, state and local government web resources and services.